Retour au catalogue

EYCORE-1

ActifScienceSSO
NORAD 69011·PAYLOAD·🇸🇪 Sweden

Lancé May 3, 2026 depuis Vandenberg Space Force Base

Loading…

Prochains Passages (prochaines 24 heures)

TLE

FraisSource: Space-Track

Époque: Sep 14, 2026, 10:15 UTC

1 69011U 26100AH  26257.42764303  .00003541  00000-0  16134-3 0  9998
2 69011  97.3918 153.6818 0006370  84.0265 276.1697 15.21295235 20374

Suivez EYCORE-1 en temps réel avec AllMySat

Download on the App Store